This is the latest recevied weather packets stored in our database for station/object OE-11307. If no packets are shown the sender has not sent any weather packets the latest 10 day(s).
| Time | Temp. | Humidity | Pressure | Rain* | Wind** | Luminosity | Snow |
|---|---|---|---|---|---|---|---|
| 1787812514 | 19.44° C | 58% | 853 hPa | 0 mm | - | 101 W/m² | - |
| 1787811914 | 19.44° C | 58% | 853 hPa | 0 mm | - | 107 W/m² | - |
| 1787811326 | 19.44° C | 57% | 853 hPa | 0 mm | - | 88 W/m² | - |
| 1787810714 | 19.44° C | 57% | 853 hPa | 0 mm | - | 76 W/m² | - |
| 1787810114 | 18.89° C | 58% | 853 hPa | 0 mm | - | 69 W/m² | - |
| 1787809287 | 18.89° C | 58% | 852.9 hPa | 0 mm | - | 50 W/m² | - |
| 1787808914 | 18.89° C | 60% | 852.9 hPa | 0 mm | - | 38 W/m² | - |
| 1787808314 | 18.33° C | 61% | 852.8 hPa | 0 mm | - | 32 W/m² | - |
| 1787807487 | 18.33° C | 62% | 852.8 hPa | 0 mm | - | 25 W/m² | - |
| 1787807114 | 18.33° C | 63% | 852.8 hPa | 0 mm | - | 13 W/m² | - |
| 1787806514 | 17.78° C | 64% | 852.8 hPa | 0 mm | - | 6 W/m² | - |
| 1787805686 | 18.33° C | 61% | 852.8 hPa | 0 mm | - | 0 W/m² | - |
| 1787805314 | 18.33° C | 62% | 852.8 hPa | 0 mm | - | 0 W/m² | - |
| 1787804714 | 18.33° C | 64% | 852.8 hPa | 0 mm | - | 0 W/m² | - |
| 1787803887 | 18.33° C | 63% | 852.9 hPa | 0 mm | - | 0 W/m² | - |
| 1787803514 | 18.33° C | 63% | 853 hPa | 0 mm | - | 0 W/m² | - |
| 1787802914 | 18.33° C | 61% | 853.2 hPa | 0 mm | - | 0 W/m² | - |
| 1787802314 | 18.33° C | 61% | 853 hPa | 0 mm | - | 0 W/m² | - |
| 1787801714 | 18.33° C | 61% | 853 hPa | 0 mm | - | 0 W/m² | - |
| 1787801114 | 18.33° C | 62% | 852.9 hPa | 0 mm | - | 0 W/m² | - |
| 1787800287 | 18.33° C | 64% | 853 hPa | 0 mm | - | 0 W/m² | - |
| 1787799914 | 17.78° C | 64% | 853.2 hPa | 0 mm | - | 0 W/m² | - |
| 1787799314 | 18.33° C | 64% | 853.3 hPa | 0 mm | - | 0 W/m² | - |
| 1787798486 | 17.78° C | 64% | 853.3 hPa | 0 mm | - | 0 W/m² | - |
| 1787798114 | 17.78° C | 68% | 853.3 hPa | 0 mm | - | 0 W/m² | - |
* Rain latest hour (hover to see other rain measurements)
** Current wind speed in m/s (hover to see current wind gust speed)